sat.trackr.live / text

‹ back to catalog

STARLINK-1714

NORAD 46562 · 2020-070AG

PAYLOAD ACTIVE UNKNOWN

§ Identity

Operator
Country
US
Launch date
2020-10-06
Launch site
AFETR
Launch vehicle
Mass (kg)
RCS (m²)

Purposes: comms

External: N2YO · Heavens-Above · Gunter

§ Orbital elements

Epoch: 2026-05-25T02:58:09.692256Z

Period
91.80 min
Inclination
53.0384°
Eccentricity
0.0008533
Mean motion
15.68652374 rev/d
Perigee alt
357.0 km
Apogee alt
368.5 km
Semi-major
6,740.9 km
B*
7.8463e-4
RAAN
104.1362°
Arg perigee
53.0071°
Mean anomaly
307.1725°
Rev number
31,228

§ Raw data

STARLINK-17141 46562U 20070AG  26145.12372329  .00091596  00000+0  78463-3 0  99992 46562  53.0384 104.1362 0008533  53.0071 307.1725 15.68652374312288

JSON: /api/v1/satellites/46562 · /tle

For live sub-satellite position, see the globe view (requires WebGL).

§ Visibility from observer

Set your observer location to see the next 7 days of passes ≥ 10°. The values pass through the URL so the page stays shareable.

No JS? Fill the form by hand. The geolocation button needs JavaScript.